EW9135 Weather Reports


Display with metric or nautical units.
time (UTC)temp
F
wind
direction
speed
MPH
gust
MPH
rain 1hr
in
rain 24hr
in
rain mn
in
humidity
%
barometer
mb
20210803132756 56 234 0.0 0.0 0.00 0.00 0.00 51 1021.8
20210803132249 56 235 0.0 0.0 0.00 0.00 0.00 50 1021.4
20210803131745 56 227 0.0 0.0 0.00 0.00 0.00 49 1021.4
20210803131240 57 226 0.0 0.0 0.00 0.00 0.00 49 1021.8
20210803130736 57 268 0.0 0.0 0.00 0.00 0.00 50 1021.4
20210803130230 57 313 0.0 0.0 0.00 0.00 0.00 51 1021.4
20210803125725 57 270 0.0 0.0 0.00 0.00 0.00 52 1021.4
20210803125220 57 221 0.0 0.0 0.00 0.00 0.00 52 1021.4
20210803124716 58 259 0.0 0.0 0.00 0.00 0.00 51 1021.4
20210803124209 58 224 0.0 0.0 0.00 0.00 0.00 50 1021.4
20210803123706 58 231 0.0 0.0 0.00 0.00 0.00 49 1021.4
20210803123159 58 282 0.0 0.0 0.00 0.00 0.00 48 1021.1
20210803122656 58 247 0.0 1.0 0.00 0.00 0.00 48 1021.4
20210803122151 58 240 0.0 3.0 0.00 0.00 0.00 48 1021.4
20210803121645 58 276 0.0 3.0 0.00 0.00 0.00 48 1021.4
20210803121139 58 259 0.0 0.0 0.00 0.00 0.00 47 1021.4
20210803120635 58 302 0.0 0.0 0.00 0.00 0.00 46 1021.4
20210803120129 58 346 0.0 0.0 0.00 0.00 0.00 46 1021.1
20210803115625 59 283 0.0 0.0 0.00 0.00 0.00 45 1021.1
20210803115120 59 226 0.0 1.0 0.00 0.00 0.00 45 1021.4
20210803114615 59 231 0.0 1.0 0.00 0.00 0.00 44 1021.4
20210803114109 60 283 0.0 0.0 0.00 0.00 0.00 44 1021.1
20210803113606 60 287 0.0 0.0 0.00 0.00 0.00 43 1021.4
20210803113101 60 294 0.0 0.0 0.00 0.00 0.00 42 1021.4
20210803112557 60 346 0.0 0.0 0.00 0.00 0.00 42 1021.1
20210803112050 60 15 0.0 0.0 0.00 0.00 0.00 42 1021.1
20210803111545 60 286 0.0 0.0 0.00 0.00 0.00 41 1021.1
20210803111039 61 89 0.0 0.0 0.00 0.00 0.00 40 1021.4
20210803110536 61 303 0.0 1.0 0.00 0.00 0.00 39 1021.1
20210803110029 61 359 0.0 1.0 0.00 0.00 0.00 37 1020.7
20210803105527 61 289 0.0 1.0 0.00 0.00 0.00 35 1021.1
20210803105019 61 314 0.0 1.0 0.00 0.00 0.00 33 1020.7
20210803104514 60 4 0.0 1.0 0.00 0.00 0.00 32 1021.1
20210803104008 60 20 0.0 1.0 0.00 0.00 0.00 31 1021.1
20210803103505 60 322 0.0 1.0 0.00 0.00 0.00 31 1020.7
20210803102959 60 286 0.0 1.0 0.00 0.00 0.00 30 1021.1
20210803102454 60 45 0.0 0.0 0.00 0.00 0.00 30 1020.7
20210803101951 60 45 0.0 0.0 0.00 0.00 0.00 31 1020.7
20210803101447 60 278 0.0 0.0 0.00 0.00 0.00 30 1020.4
20210803100940 60 222 0.0 0.0 0.00 0.00 0.00 29 1020.7
20210803100435 60 174 0.0 0.0 0.00 0.00 0.00 30 1020.7
20210803095933 61 200 0.0 0.0 0.00 0.00 0.00 28 1020.7
20210803095429 61 199 0.0 0.0 0.00 0.00 0.00 27 1020.7
20210803094927 61 199 0.0 0.0 0.00 0.00 0.00 26 1020.7
20210803094417 62 159 0.0 0.0 0.00 0.00 0.00 26 1020.7
20210803093912 62 232 0.0 0.0 0.00 0.00 0.00 27 1020.7
20210803093407 62 235 0.0 0.0 0.00 0.00 0.00 26 1020.4
20210803092900 63 229 0.0 0.0 0.00 0.00 0.00 24 1020.7
20210803092354 63 272 0.0 0.0 0.00 0.00 0.00 23 1020.7
20210803091850 64 292 0.0 1.0 0.00 0.00 0.00 22 1020.4
20210803091343 65 26 0.0 1.0 0.00 0.00 0.00 21 1020.7
20210803090838 65 46 0.0 0.0 0.00 0.00 0.00 19 1020.7
20210803090334 66 262 0.0 0.0 0.00 0.00 0.00 18 1020.7
20210803085828 66 13 0.0 0.0 0.00 0.00 0.00 18 1020.7
20210803085322 67 343 0.0 0.0 0.00 0.00 0.00 23 1020.4
20210803084817 67 270 0.0 0.0 0.00 0.00 0.00 22 1020.7
20210803084311 68 333 0.0 0.0 0.00 0.00 0.00 22 1020.4
20210803083805 68 294 0.0 0.0 0.00 0.00 0.00 22 1020.7
20210803083300 68 26 0.0 0.0 0.00 0.00 0.00 17 1020.4
20210803082755 69 274 0.0 1.0 0.00 0.00 0.00 21 1020.4
20210803082249 69 340 0.0 1.0 0.00 0.00 0.00 21 1020.7
20210803081744 69 231 0.0 1.0 0.00 0.00 0.00 21 1020.4
20210803081238 69 183 0.0 1.0 0.00 0.00 0.00 21 1020.4
20210803080732 69 207 0.0 1.0 0.00 0.00 0.00 21 1020.7
20210803080227 69 216 0.0 1.0 0.00 0.00 0.00 21 1020.7
20210803075506 69 254 0.0 1.0 0.00 0.00 0.00 21 1020.7
20210803074959 68 228 0.0 2.0 0.00 0.00 0.00 21 1020.7
20210803074454 68 224 0.0 2.0 0.00 0.00 0.00 21 1020.7
20210803073949 68 256 1.0 2.0 0.00 0.00 0.00 21 1020.7
20210803073442 68 262 0.0 2.0 0.00 0.00 0.00 21 1021.1
20210803072937 68 257 0.0 2.0 0.00 0.00 0.00 21 1021.1
20210803072433 67 277 0.0 2.0 0.00 0.00 0.00 21 1021.1
20210803071927 67 266 0.0 1.0 0.00 0.00 0.00 22 1021.1
20210803071421 68 250 0.0 1.0 0.00 0.00 0.00 23 1021.1
20210803070917 68 238 0.0 1.0 0.00 0.00 0.00 23 1021.1
20210803070411 68 233 0.0 1.0 0.00 0.00 0.00 23 1020.7
20210803065905 68 295 0.0 1.0 0.00 0.00 0.00 23 1021.1
20210803065400 68 238 0.0 2.0 0.00 0.00 0.00 23 1020.7
20210803064852 68 13 0.0 2.0 0.00 0.00 0.00 21 1021.1
20210803064347 68 294 0.0 2.0 0.00 0.00 0.00 21 1020.7
20210803063843 68 315 1.0 1.0 0.00 0.00 0.00 21 1020.7
20210803063337 68 244 0.0 1.0 0.00 0.00 0.00 21 1020.7
20210803062830 68 273 0.0 1.0 0.00 0.00 0.00 21 1021.1
20210803062327 68 233 0.0 1.0 0.00 0.00 0.00 21 1020.7
20210803061820 68 241 0.0 1.0 0.00 0.00 0.00 22 1021.1
20210803061314 68 278 0.0 0.0 0.00 0.00 0.00 21 1020.7
20210803060810 69 246 0.0 0.0 0.00 0.00 0.00 22 1021.1
20210803060304 69 246 0.0 0.0 0.00 0.00 0.00 22 1020.7
20210803055758 70 258 0.0 0.0 0.00 0.00 0.00 21 1020.7
20210803055256 70 235 0.0 0.0 0.00 0.00 0.00 21 1021.1
20210803054747 71 243 0.0 0.0 0.00 0.00 0.00 21 1021.1
20210803054241 71 299 0.0 1.0 0.00 0.00 0.00 20 1021.1
20210803053737 71 126 0.0 1.0 0.00 0.00 0.00 19 1021.4
20210803053230 71 200 0.0 0.0 0.00 0.00 0.00 19 1021.4
20210803052725 71 271 0.0 1.0 0.00 0.00 0.00 19 1021.1
20210803052220 71 95 0.0 1.0 0.00 0.00 0.00 19 1021.4
20210803051714 72 260 0.0 1.0 0.00 0.00 0.00 18 1021.1
20210803051208 72 274 0.0 1.0 0.00 0.00 0.00 18 1021.4
20210803050704 72 280 0.0 1.0 0.00 0.00 0.00 18 1021.1
20210803050157 72 200 0.0 1.0 0.00 0.00 0.00 19 1021.1
20210803045652 72 271 0.0 1.0 0.00 0.00 0.00 18 1021.1
20210803045147 72 245 0.0 0.0 0.00 0.00 0.00 18 1021.1
20210803044640 73 289 0.0 0.0 0.00 0.00 0.00 18 1021.1
20210803044135 73 192 0.0 0.0 0.00 0.00 0.00 18 1021.1
20210803043630 73 280 0.0 1.0 0.00 0.00 0.00 18 1021.1
20210803043124 73 234 0.0 1.0 0.00 0.00 0.00 18 1021.1
20210803042624 73 222 0.0 1.0 0.00 0.00 0.00 18 1021.1
20210803042114 73 283 0.0 1.0 0.00 0.00 0.00 18 1021.1
20210803041607 73 253 0.0 1.0 0.00 0.00 0.00 18 1021.1
20210803041102 73 253 0.0 2.0 0.00 0.00 0.00 18 1021.1
20210803040558 74 284 0.0 2.0 0.00 0.00 0.00 15 1021.1
20210803040052 74 256 0.0 2.0 0.00 0.00 0.00 14 1020.7
20210803035545 74 317 0.0 2.0 0.00 0.00 0.00 17 1020.7
20210803035041 75 302 0.0 2.0 0.00 0.00 0.00 14 1021.1
20210803034534 75 236 0.0 2.0 0.00 0.00 0.00 13 1021.1
20210803034028 75 282 0.0 2.0 0.00 0.00 0.00 13 1020.7
20210803033525 76 236 0.0 2.0 0.00 0.00 0.00 12 1020.7
20210803033017 76 289 0.0 2.0 0.00 0.00 0.00 12 1020.7
20210803032513 77 263 0.0 3.0 0.00 0.00 0.00 11 1020.7
20210803032007 77 287 1.0 3.0 0.00 0.00 0.00 11 1021.1
20210803031501 78 21 0.0 4.0 0.00 0.00 0.00 11 1020.7
20210803030956 78 302 1.0 4.0 0.00 0.00 0.00 11 1020.7
20210803030451 79 323 1.0 4.0 0.00 0.00 0.00 10 1020.7
20210803025946 79 210 0.0 4.0 0.00 0.00 0.00 10 1020.7
20210803025439 80 279 2.0 4.0 0.00 0.00 0.00 10 1020.7
20210803024935 80 235 1.0 4.0 0.00 0.00 0.00 10 1020.7
20210803024428 81 284 0.0 4.0 0.00 0.00 0.00 10 1020.7
20210803023922 81 304 0.0 3.0 0.00 0.00 0.00 10 1020.7
20210803023417 82 106 0.0 3.0 0.00 0.00 0.00 10 1020.7
20210803022911 83 350 1.0 2.0 0.00 0.00 0.00 10 1020.4
20210803022405 84 7 0.0 2.0 0.00 0.00 0.00 10 1020.7
20210803021901 85 258 0.0 3.0 0.00 0.00 0.00 10 1020.7
20210803021355 86 291 1.0 3.0 0.00 0.00 0.00 12 1020.7
20210803020848 87 130 0.0 3.0 0.00 0.00 0.00 12 1020.7
20210803020348 88 28 1.0 4.0 0.00 0.00 0.00 11 1020.7
20210803015837 89 60 1.0 4.0 0.00 0.00 0.00 10 1020.4
20210803015333 89 302 1.0 3.0 0.00 0.00 0.00 10 1020.7
20210803014829 89 309 0.0 4.0 0.00 0.00 0.00 10 1020.7
20210803014321 89 288 1.0 4.0 0.00 0.00 0.00 10 1020.7
20210803013816 89 102 2.0 4.0 0.00 0.00 0.00 10 1020.7
20210803013312 89 312 0.0 4.0 0.00 0.00 0.00 10 1020.7
20210803012805 89 283 1.0 3.0 0.00 0.00 0.00 10 1020.7
20210803012259 89 305 1.0 3.0 0.00 0.00 0.00 10 1020.7
20210803011755 89 298 0.0 3.0 0.00 0.00 0.00 10 1020.7
20210803011248 89 266 1.0 4.0 0.00 0.00 0.00 10 1020.7
20210803010744 89 267 1.0 4.0 0.00 0.00 0.00 10 1021.1
20210803010238 89 147 0.0 4.0 0.00 0.00 0.00 10 1021.1
20210803005732 90 34 1.0 3.0 0.00 0.00 0.00 10 1021.1
20210803005226 90 345 1.0 3.0 0.00 0.00 0.00 10 1021.1
20210803004722 90 348 1.0 2.0 0.00 0.00 0.00 10 1021.1
20210803004214 91 356 1.0 3.0 0.00 0.00 0.00 10 1021.1
20210803003710 91 341 2.0 4.0 0.00 0.00 0.00 10 1021.4
20210803003206 91 70 0.0 4.0 0.00 0.00 0.00 10 1021.4
20210803002658 91 317 1.0 4.0 0.00 0.00 0.00 12 1021.1
20210803002153 91 221 1.0 4.0 0.00 0.00 0.00 12 1021.4
20210803001649 90 269 1.0 3.0 0.00 0.00 0.00 12 1021.4
20210803001142 89 48 0.0 3.0 0.00 0.00 0.00 12 1021.4
20210803000638 89 321 1.0 4.0 0.00 0.00 0.00 10 1021.4
20210803000132 89 305 1.0 2.0 0.00 0.00 0.00 10 1021.4
20210802235626 89 286 1.0 4.0 0.00 0.00 0.00 10 1021.4
20210802235120 89 355 1.0 4.0 0.00 0.00 0.00 10 1021.4
20210802234621 89 263 0.0 4.0 0.00 0.00 0.00 10 1021.4
20210802234109 89 27 0.0 4.0 0.00 0.00 0.00 10 1021.4
20210802233603 89 304 2.0 4.0 0.00 0.00 0.00 10 1021.4
20210802233059 90 67 0.0 4.0 0.00 0.00 0.00 10 1021.8
20210802232552 89 243 0.0 4.0 0.00 0.00 0.00 10 1021.4
20210802232047 89 313 2.0 4.0 0.00 0.00 0.00 10 1021.4
20210802231542 89 258 0.0 4.0 0.00 0.00 0.00 10 1021.8
20210802231036 88 282 1.0 3.0 0.00 0.00 0.00 10 1021.8
20210802230530 88 321 0.0 4.0 0.00 0.00 0.00 10 1021.8
20210802230025 87 306 2.0 4.0 0.00 0.00 0.00 10 1021.8
20210802225520 87 7 1.0 4.0 0.00 0.00 0.00 10 1022.1
20210802225014 86 243 2.0 6.0 0.00 0.00 0.00 10 1022.4
20210802224509 86 16 3.0 6.0 0.00 0.00 0.00 10 1022.4
20210802224003 86 96 0.0 4.0 0.00 0.00 0.00 10 1022.4
20210802223457 86 26 1.0 4.0 0.00 0.00 0.00 10 1022.4
20210802222953 87 281 0.0 4.0 0.00 0.00 0.00 11 1022.8
20210802222446 87 316 2.0 4.0 0.00 0.00 0.00 11 1022.8
20210802221941 87 297 2.0 4.0 0.00 0.00 0.00 10 1022.4
20210802221437 86 332 2.0 4.0 0.00 0.00 0.00 10 1023.1
20210802220930 86 261 2.0 4.0 0.00 0.00 0.00 10 1022.8
20210802220425 86 205 1.0 4.0 0.00 0.00 0.00 10 1023.1
20210802215921 85 90 1.0 6.0 0.00 0.00 0.00 10 1022.8
20210802215414 85 287 3.0 4.0 0.00 0.00 0.00 11 1023.1
20210802214908 85 43 1.0 3.0 0.00 0.00 0.00 10 1022.8
20210802214404 85 14 1.0 3.0 0.00 0.00 0.00 11 1023.1
20210802213856 85 21 1.0 3.0 0.00 0.00 0.00 11 1023.1
20210802213351 85 269 1.0 6.0 0.00 0.00 0.00 11 1023.1
20210802212847 84 81 1.0 6.0 0.00 0.00 0.00 11 1023.1
20210802212341 84 275 1.0 4.0 0.00 0.00 0.00 11 1023.1
20210802211835 84 263 2.0 4.0 0.00 0.00 0.00 11 1023.5
20210802211332 83 312 2.0 3.0 0.00 0.00 0.00 10 1023.5
20210802210825 83 352 1.0 4.0 0.00 0.00 0.00 11 1023.5
20210802210318 83 287 2.0 3.0 0.00 0.00 0.00 12 1023.5
20210802205814 82 281 2.0 3.0 0.00 0.00 0.00 11 1023.5
20210802205307 82 19 1.0 3.0 0.00 0.00 0.00 12 1023.5
20210802204801 82 349 2.0 3.0 0.00 0.00 0.00 10 1023.8
20210802204256 82 3 2.0 3.0 0.00 0.00 0.00 12 1023.8
20210802203750 82 31 0.0 3.0 0.00 0.00 0.00 12 1023.8
20210802203244 82 287 2.0 3.0 0.00 0.00 0.00 12 1023.8
20210802202741 81 34 1.0 3.0 0.00 0.00 0.00 12 1023.8
20210802202233 81 18 2.0 4.0 0.00 0.00 0.00 12 1023.8
20210802201728 80 279 1.0 4.0 0.00 0.00 0.00 10 1024.1
20210802201225 80 48 1.0 4.0 0.00 0.00 0.00 10 1024.1
20210802200717 80 4 2.0 4.0 0.00 0.00 0.00 10 1024.1
20210802200211 80 334 1.0 3.0 0.00 0.00 0.00 10 1024.1
20210802195707 79 75 1.0 3.0 0.00 0.00 0.00 10 1024.1
20210802195200 79 70 2.0 4.0 0.00 0.00 0.00 10 1024.1
20210802194709 78 274 1.0 4.0 0.00 0.00 0.00 10 1024.1
20210802194151 78 293 1.0 4.0 0.00 0.00 0.00 11 1024.1
20210802193644 78 281 2.0 3.0 0.00 0.00 0.00 11 1024.1
20210802193138 78 299 1.0 3.0 0.00 0.00 0.00 10 1024.1
20210802192634 78 64 2.0 4.0 0.00 0.00 0.00 11 1024.1
20210802192127 78 323 2.0 4.0 0.00 0.00 0.00 11 1024.5
20210802191621 78 354 1.0 4.0 0.00 0.00 0.00 11 1024.5
20210802191117 78 41 2.0 4.0 0.00 0.00 0.00 11 1024.5
20210802190612 78 59 0.0 4.0 0.00 0.00 0.00 11 1024.5
20210802190105 78 57 1.0 3.0 0.00 0.00 0.00 11 1024.5
20210802185600 78 273 1.0 4.0 0.00 0.00 0.00 11 1024.8
20210802185053 78 246 2.0 4.0 0.00 0.00 0.00 10 1024.5
20210802184548 78 269 2.0 4.0 0.00 0.00 0.00 10 1024.5
20210802184044 79 267 1.0 4.0 0.00 0.00 0.00 10 1024.5
20210802183537 79 279 0.0 4.0 0.00 0.00 0.00 10 1024.5
20210802183032 80 285 0.0 4.0 0.00 0.00 0.00 10 1024.5
20210802182530 80 280 1.0 4.0 0.00 0.00 0.00 10 1024.5
20210802182021 80 229 1.0 2.0 0.00 0.00 0.00 10 1024.8
20210802181516 80 221 0.0 2.0 0.00 0.00 0.00 10 1024.8
20210802181011 79 309 0.0 1.0 0.00 0.00 0.00 10 1024.5
20210802180504 79 98 0.0 1.0 0.00 0.00 0.00 10 1024.8
20210802175958 78 210 0.0 1.0 0.00 0.00 0.00 10 1024.5
20210802175454 78 276 0.0 2.0 0.00 0.00 0.00 10 1024.8
20210802174947 78 242 0.0 2.0 0.00 0.00 0.00 10 1024.8
20210802174443 78 39 0.0 2.0 0.00 0.00 0.00 10 1024.1
20210802173937 77 116 0.0 2.0 0.00 0.00 0.00 10 1024.5
20210802173431 77 90 0.0 1.0 0.00 0.00 0.00 10 1024.5
20210802172925 77 121 0.0 1.0 0.00 0.00 0.00 11 1024.5
20210802172422 76 325 0.0 1.0 0.00 0.00 0.00 10 1024.8
20210802171914 76 0 0.0 1.0 0.00 0.00 0.00 10 1024.8
20210802171408 75 183 0.0 1.0 0.00 0.00 0.00 10 1024.8
20210802170908 74 214 0.0 1.0 0.00 0.00 0.00 11 1024.8
20210802170359 74 196 0.0 2.0 0.00 0.00 0.00 11 1024.8
20210802165854 74 113 0.0 2.0 0.00 0.00 0.00 12 1024.8
20210802165348 73 135 0.0 2.0 0.00 0.00 0.00 11 1024.8
20210802164841 73 339 0.0 2.0 0.00 0.00 0.00 13 1024.8
20210802164336 73 296 0.0 3.0 0.00 0.00 0.00 16 1024.8
20210802163831 73 49 1.0 3.0 0.00 0.00 0.00 15 1024.8
20210802163325 73 194 0.0 3.0 0.00 0.00 0.00 12 1024.8
20210802162820 72 205 0.0 3.0 0.00 0.00 0.00 15 1024.8
20210802162315 72 94 0.0 1.0 0.00 0.00 0.00 12 1024.8
20210802161809 72 50 0.0 1.0 0.00 0.00 0.00 12 1025.3
20210802161303 72 113 0.0 1.0 0.00 0.00 0.00 15 1024.8
20210802160758 72 127 1.0 1.0 0.00 0.00 0.00 15 1024.8
20210802160252 72 141 0.0 1.0 0.00 0.00 0.00 15 1025.3
20210802155746 71 109 0.0 1.0 0.00 0.00 0.00 16 1024.8
20210802155242 71 116 0.0 1.0 0.00 0.00 0.00 15 1025.3
20210802154735 70 187 0.0 1.0 0.00 0.00 0.00 15 1024.8
20210802154230 70 250 0.0 1.0 0.00 0.00 0.00 17 1025.3
20210802153725 69 225 0.0 1.0 0.00 0.00 0.00 15 1024.8
20210802153219 68 199 0.0 1.0 0.00 0.00 0.00 18 1025.3
20210802152713 68 243 0.0 1.0 0.00 0.00 0.00 17 1024.8
20210802152210 67 231 0.0 1.0 0.00 0.00 0.00 20 1025.3
20210802151702 66 252 0.0 1.0 0.00 0.00 0.00 20 1025.3
20210802151158 65 171 0.0 1.0 0.00 0.00 0.00 22 1025.3
20210802150653 64 229 0.0 1.0 0.00 0.00 0.00 24 1024.8
20210802150146 64 288 0.0 1.0 0.00 0.00 0.00 24 1024.8
20210802145640 63 196 0.0 1.0 0.00 0.00 0.00 26 1024.8
20210802145136 62 334 0.0 1.0 0.00 0.00 0.00 28 1024.8
20210802144629 61 228 0.0 1.0 0.00 0.00 0.00 31 1024.5
20210802144124 61 296 0.0 1.0 0.00 0.00 0.00 30 1024.8
20210802143619 60 276 0.0 1.0 0.00 0.00 0.00 34 1024.5
20210802143112 60 230 0.0 1.0 0.00 0.00 0.00 39 1024.8
20210802142608 60 234 0.0 1.0 0.00 0.00 0.00 40 1024.5
20210802142103 60 258 0.0 1.0 0.00 0.00 0.00 40 1024.5
20210802141555 60 208 0.0 0.0 0.00 0.00 0.00 40 1024.8
20210802141050 60 241 0.0 2.0 0.00 0.00 0.00 40 1024.5
20210802140546 59 174 0.0 2.0 0.00 0.00 0.00 41 1024.5
20210802140039 59 195 0.0 1.0 0.00 0.00 0.00 41 1024.5
20210802135534 59 269 0.0 1.0 0.00 0.00 0.00 41 1024.5
20210802135029 59 216 0.0 1.0 0.00 0.00 0.00 41 1024.5
20210802134523 59 255 0.0 1.0 0.00 0.00 0.00 40 1024.5
20210802134018 59 200 1.0 1.0 0.00 0.00 0.00 41 1024.5
20210802133512 59 254 0.0 1.0 0.00 0.00 0.00 41 1024.1